When you browse on this site, cookies collect data to enhance your experience and personalize the content and advertising you see.
Visit our Privacy Policy to learn more. By continuing to use the site, you agree to this use of cookies and data.

Hourly Weather Zibrovo

Today, 6 July, Monday

Time Temperature Precipitation Wind Pressure Humidity
00:00 +19°C° 0 mm 1 mps 742 mmHg 94%
01:00 +19°C° 0 mm 1 mps 742 mmHg 95%
02:00 +18°C° 0 mm 1 mps 742 mmHg 95%
03:00 +19°C° 0 mm 1 mps 743 mmHg 95%
04:00 +19°C° 0 mm 1 mps 743 mmHg 95%
05:00 +18°C° 0 mm 2 mps 743 mmHg 95%
06:00 +20°C° 0 mm 2 mps 743 mmHg 90%
07:00 +21°C° 0 mm 2 mps 743 mmHg 85%
08:00 +24°C° 0 mm 2 mps 743 mmHg 80%
09:00 +25°C° 0 mm 2 mps 743 mmHg 75%
10:00 +26°C° 0 mm 2 mps 743 mmHg 70%
11:00 +27°C° 0 mm 2 mps 743 mmHg 65%
12:00 +27°C° 0 mm 2 mps 743 mmHg 64%
13:00 +28°C° 0 mm 2 mps 742 mmHg 63%
14:00 +28°C° 0 mm 2 mps 742 mmHg 62%
15:00 +28°C° 0 mm 2 mps 742 mmHg 65%
16:00 +28°C° 0 mm 2 mps 742 mmHg 68%
17:00 +28°C° 0 mm 2 mps 741 mmHg 71%
18:00 +26°C° 0 mm 2 mps 741 mmHg 76%
19:00 +24°C° 0 mm 2 mps 741 mmHg 80%
20:00 +23°C° 0 mm 2 mps 741 mmHg 84%
21:00 +21°C° 0 mm 2 mps 741 mmHg 86%
22:00 +21°C° 0 mm 2 mps 741 mmHg 87%
23:00 +21°C° 0 mm 1 mps 741 mmHg 89%

Tomorrow, 7 July, Tuesday

Time Temperature Precipitation Wind Pressure Humidity
00:00 +21°C° 0 mm 1 mps 741 mmHg 89%
01:00 +20°C° 0 mm 1 mps 741 mmHg 90%
02:00 +19°C° 0 mm 2 mps 741 mmHg 91%
03:00 +19°C° 0 mm 2 mps 741 mmHg 90%
04:00 +20°C° 0 mm 2 mps 741 mmHg 90%
05:00 +20°C° 0 mm 2 mps 741 mmHg 89%
06:00 +23°C° 0.2 mm 2 mps 741 mmHg 86%
07:00 +24°C° 0.2 mm 3 mps 741 mmHg 83%
08:00 +26°C° 0.2 mm 3 mps 740 mmHg 80%
09:00 +27°C° 1.1 mm 3 mps 740 mmHg 76%
10:00 +28°C° 1.1 mm 3 mps 740 mmHg 72%
11:00 +29°C° 1.1 mm 3 mps 740 mmHg 67%
12:00 +30°C° 0.2 mm 3 mps 739 mmHg 65%
13:00 +31°C° 0.2 mm 3 mps 739 mmHg 62%
14:00 +31°C° 0.2 mm 2 mps 739 mmHg 59%
15:00 +31°C° 0.2 mm 2 mps 739 mmHg 65%
16:00 +30°C° 0.2 mm 3 mps 738 mmHg 70%
17:00 +29°C° 0.2 mm 3 mps 738 mmHg 76%
18:00 +28°C° 0.1 mm 3 mps 738 mmHg 79%
19:00 +27°C° 0.1 mm 2 mps 738 mmHg 82%
20:00 +25°C° 0.1 mm 2 mps 738 mmHg 86%
21:00 +25°C° 0 mm 3 mps 737 mmHg 85%
22:00 +24°C° 0 mm 3 mps 737 mmHg 84%
23:00 +24°C° 0 mm 3 mps 737 mmHg 83%

Day after tomorrow, 8 July, Wednesday

Time Temperature Precipitation Wind Pressure Humidity
00:00 +22°C° 0.3 mm 3 mps 737 mmHg 84%
01:00 +21°C° 0.3 mm 3 mps 737 mmHg 84%
02:00 +20°C° 0.3 mm 3 mps 736 mmHg 84%
03:00 +20°C° 0.4 mm 3 mps 736 mmHg 86%
04:00 +20°C° 0.4 mm 3 mps 736 mmHg 87%
05:00 +20°C° 0.4 mm 3 mps 736 mmHg 88%
06:00 +21°C° 0 mm 3 mps 736 mmHg 86%
07:00 +24°C° 0 mm 3 mps 737 mmHg 84%
08:00 +25°C° 0 mm 4 mps 737 mmHg 82%
09:00 +25°C° 0.8 mm 3 mps 737 mmHg 82%
10:00 +25°C° 0.8 mm 3 mps 737 mmHg 83%
11:00 +26°C° 0.8 mm 2 mps 738 mmHg 84%
12:00 +26°C° 0.3 mm 3 mps 738 mmHg 83%
13:00 +25°C° 0.3 mm 3 mps 738 mmHg 83%
14:00 +25°C° 0.3 mm 4 mps 738 mmHg 82%
15:00 +25°C° 0.5 mm 4 mps 739 mmHg 84%
16:00 +24°C° 0.5 mm 3 mps 739 mmHg 86%
17:00 +22°C° 0.5 mm 3 mps 739 mmHg 88%
18:00 +21°C° 0.6 mm 4 mps 739 mmHg 91%
19:00 +19°C° 0.6 mm 4 mps 739 mmHg 93%
20:00 +18°C° 0.6 mm 4 mps 739 mmHg 96%
21:00 +18°C° 1.4 mm 4 mps 739 mmHg 96%
22:00 +17°C° 1.4 mm 4 mps 739 mmHg 97%
23:00 +17°C° 1.4 mm 4 mps 739 mmHg 97%

9 July, Thursday

Time Temperature Precipitation Wind Pressure Humidity
00:00 +17°C° 2.3 mm 4 mps 739 mmHg 97%
01:00 +16°C° 2.3 mm 3 mps 739 mmHg 98%
02:00 +16°C° 2.3 mm 3 mps 739 mmHg 98%
03:00 +15°C° 0.3 mm 4 mps 739 mmHg 97%
04:00 +15°C° 0.3 mm 4 mps 739 mmHg 97%
05:00 +14°C° 0.3 mm 4 mps 739 mmHg 97%
06:00 +14°C° 0 mm 5 mps 739 mmHg 96%
07:00 +15°C° 0 mm 5 mps 739 mmHg 95%
08:00 +15°C° 0 mm 5 mps 739 mmHg 94%
09:00 +15°C° 1.1 mm 5 mps 739 mmHg 94%
10:00 +15°C° 1.1 mm 5 mps 739 mmHg 94%
11:00 +15°C° 1.1 mm 5 mps 739 mmHg 94%
12:00 +14°C° 3.1 mm 5 mps 739 mmHg 94%
13:00 +14°C° 3.1 mm 6 mps 739 mmHg 94%
14:00 +14°C° 3.1 mm 6 mps 739 mmHg 95%
15:00 +14°C° 0.5 mm 6 mps 739 mmHg 94%
16:00 +14°C° 0.5 mm 5 mps 739 mmHg 92%
17:00 +14°C° 0.5 mm 5 mps 739 mmHg 91%
18:00 +13°C° 0.2 mm 5 mps 739 mmHg 92%
19:00 +13°C° 0.2 mm 5 mps 739 mmHg 93%
20:00 +13°C° 0.2 mm 5 mps 739 mmHg 95%
21:00 +13°C° 0.4 mm 5 mps 739 mmHg 95%
22:00 +13°C° 0.4 mm 4 mps 739 mmHg 95%
23:00 +13°C° 0.4 mm 4 mps 739 mmHg 96%

10 July, Friday

Time Temperature Precipitation Wind Pressure Humidity
00:00 +13°C° 0.6 mm 5 mps 740 mmHg 95%
01:00 +13°C° 0.6 mm 5 mps 740 mmHg 94%
02:00 +13°C° 0.6 mm 6 mps 740 mmHg 93%
03:00 +11°C° 0.1 mm 6 mps 740 mmHg 93%
04:00 +12°C° 0.1 mm 5 mps 741 mmHg 92%
05:00 +12°C° 0.1 mm 5 mps 741 mmHg 91%
06:00 +13°C° 0 mm 6 mps 741 mmHg 87%
07:00 +14°C° 0 mm 6 mps 742 mmHg 84%
08:00 +15°C° 0 mm 6 mps 742 mmHg 80%
09:00 +16°C° 0 mm 7 mps 742 mmHg 76%
10:00 +17°C° 0 mm 7 mps 743 mmHg 71%
11:00 +18°C° 0 mm 8 mps 743 mmHg 66%
12:00 +18°C° 0 mm 8 mps 744 mmHg 65%
13:00 +20°C° 0 mm 7 mps 744 mmHg 63%
14:00 +20°C° 0 mm 7 mps 744 mmHg 62%
15:00 +20°C° 0 mm 6 mps 745 mmHg 65%
16:00 +20°C° 0 mm 5 mps 745 mmHg 68%
17:00 +20°C° 0 mm 4 mps 745 mmHg 70%
18:00 +18°C° 0 mm 4 mps 746 mmHg 74%
19:00 +17°C° 0 mm 3 mps 746 mmHg 77%
20:00 +14°C° 0 mm 3 mps 746 mmHg 80%
21:00 +13°C° 0 mm 3 mps 747 mmHg 82%
22:00 +12°C° 0 mm 3 mps 747 mmHg 85%
23:00 +11°C° 0 mm 3 mps 747 mmHg 88%

11 July, Saturday

Time Temperature Precipitation Wind Pressure Humidity
00:00 +11°C° 0 mm 3 mps 747 mmHg 89%
01:00 +11°C° 0 mm 3 mps 748 mmHg 90%
02:00 +10°C° 0 mm 3 mps 748 mmHg 91%
03:00 +10°C° 0 mm 2 mps 748 mmHg 90%
04:00 +12°C° 0 mm 2 mps 748 mmHg 89%
05:00 +12°C° 0 mm 2 mps 748 mmHg 88%
06:00 +14°C° 0 mm 2 mps 748 mmHg 83%
07:00 +16°C° 0 mm 2 mps 748 mmHg 77%
08:00 +18°C° 0 mm 2 mps 748 mmHg 72%
09:00 +19°C° 0 mm 2 mps 748 mmHg 67%
10:00 +20°C° 0 mm 3 mps 748 mmHg 63%
11:00 +21°C° 0 mm 3 mps 748 mmHg 58%
12:00 +22°C° 0 mm 3 mps 748 mmHg 58%
13:00 +22°C° 0 mm 3 mps 748 mmHg 57%
14:00 +22°C° 0 mm 3 mps 748 mmHg 56%
15:00 +23°C° 0 mm 2 mps 748 mmHg 60%
16:00 +23°C° 0 mm 2 mps 747 mmHg 64%
17:00 +23°C° 0 mm 2 mps 747 mmHg 68%
18:00 +20°C° 0 mm 2 mps 747 mmHg 74%
19:00 +19°C° 0 mm 2 mps 747 mmHg 80%
20:00 +17°C° 0 mm 2 mps 747 mmHg 85%
21:00 +17°C° 0 mm 2 mps 747 mmHg 88%
22:00 +16°C° 0 mm 2 mps 747 mmHg 90%
23:00 +15°C° 0 mm 2 mps 747 mmHg 92%
Show more